This demonstration page uses our WeatherBlox Daily Observations layout. Learn more.

Left ArrowRight Arrow

38.20091, -84.87328

Hourly Observations for October 3, 2021

Temp ( °F °C ) Dew Point ( °F °C ) Humidity (%) Winds ( mph kmh ) Pressure ( in mb ) Visibility ( mi km ) Precip ( " mm )
12:53 am 00:53 Cloudy with Light Rain 69 20.6 68 20 96 96 Calm 30.01 1016 4 6 0.00 0.00
1:16 am 01:16 Cloudy with Mist and Fog 70 21.1 68 20 93 93 Calm 30.01 1016 6 10 0.01 0.25
1:25 am 01:25 Cloudy with Nearby Thunderstorms 69 20.6 68 20 96 96 SW 9 15 30.02 1017 4 6 0.01 0.25
1:27 am 01:27 Cloudy with Nearby Thunderstorms 69 20.6 68 20 96 96 SW 6 9 30.02 1017 2 3 0.01 0.25
1:33 am 01:33 Cloudy with Nearby Thunderstorms 69 20.6 68 20 96 96 SSW 8 13 30.02 1017 1 2 0.01 0.25
1:38 am 01:38 Cloudy with Heavy Rain 69 20.6 68 20 96 96 SSW 12 19 30.02 1017 1 2 0.02 0.51
1:44 am 01:44 Cloudy with Strong Thunderstorms 69 20.6 67 19.4 93 93 SSW 12 19 30.01 1016 2 2 0.02 0.51
1:48 am 01:48 Cloudy with Thunderstorms 70 21 66 19 88 88 SSW 13 20 30.01 1016 3 5 0.02 0.51
1:53 am 01:53 Cloudy with Thunderstorms 69 20.6 66 18.9 90 90 SSW 10 17 30.00 1016 3 5 0.03 0.76
2:05 am 02:05 Cloudy 68 20 66 18.9 93 93 SSW 10 17 30.00 1016 10 16 0.00 0.00
2:53 am 02:53 Cloudy 68 20 66 18.9 93 93 S 6 9 29.99 1016 10 16 0.04 1.02
3:34 am 03:34 Cloudy 68 20 67 19.4 96 96 S 6 9 29.99 1016 9 14 0.00 0.00
3:53 am 03:53 Cloudy with Light Rain 68 20 67 19.4 96 96 SSE 7 11 29.97 1015 4 6 0.01 0.25
4:27 am 04:27 Cloudy 68 20 67 19.4 96 96 S 8 13 29.97 1015 9 14 0.02 0.51
4:53 am 04:53 Cloudy 68 20 66 18.9 93 93 S 9 15 29.96 1015 10 16 0.03 0.76
5:53 am 05:53 Cloudy 68 20 66 18.9 93 93 S 7 11 29.96 1015 10 16 0.01 0.25
6:13 am 06:13 Cloudy 68 20 66 18.9 93 93 SSW 7 11 29.97 1015 10 16 0.00 0.00
6:24 am 06:24 Cloudy 68 20 66 18.9 93 93 W 6 9 29.97 1015 10 16 0.00 0.00
6:53 am 06:53 Cloudy 68 20 66 18.9 93 93 S 7 11 29.97 1015 10 16 0.00 0.00
7:12 am 07:12 Mostly Cloudy 67 19.4 66 18.9 97 97 S 6 9 29.97 1015 10 16 0.00 0.00
7:34 am 07:34 Cloudy 68 20 66 18.9 93 93 S 7 11 29.96 1015 10 16 0.00 0.00
7:47 am 07:47 Cloudy 68 20 66 19 94 94 S 8 13 29.96 1015 10 16 0.00 0.00
7:48 am 07:48 Cloudy 68 20 66 19 94 94 S 7 11 29.96 1015 10 16 0.00 0.00
7:53 am 07:53 Cloudy 68 20 66 18.9 93 93 S 9 15 29.96 1015 10 16 0.00 0.00
8:05 am 08:05 Cloudy 68 20 66 18.9 93 93 SSW 7 11 29.97 1015 10 16 0.00 0.00
8:12 am 08:12 Cloudy 68 20 66 18.9 93 93 SSW 8 13 29.97 1015 10 16 0.00 0.00
8:53 am 08:53 Cloudy 69 20.6 67 19.4 93 93 S 7 11 29.97 1015 10 16 0.00 0.00
9:38 am 09:38 Cloudy 70 21.1 68 20 93 93 S 8 13 29.96 1014 10 16 0.00 0.00
9:45 am 09:45 Cloudy 70 21.1 68 20 93 93 S 9 15 29.96 1014 10 16 0.00 0.00
9:53 am 09:53 Cloudy with Light Rain 70 21.1 68 20 93 93 S 7 11 29.96 1014 6 10 0.00 0.00
10:53 am 10:53 Mostly Cloudy 73 22.8 69 20.6 87 87 S 12 19 29.95 1014 10 16 0.02 0.51
11:10 am 11:10 Cloudy 73 22.8 69 20.6 87 87 S 14 22 29.94 1014 10 16 0.00 0.00
11:51 am 11:51 Cloudy 72 22 68 20 88 88 SSW 9 15 29.95 1014 10 16 0.00 0.00
11:53 am 11:53 Cloudy 72 22.2 68 20 87 87 S 9 15 29.95 1014 10 16 0.00 0.00
12:04 pm 12:04 Cloudy with Nearby Thunderstorms 73 22.8 68 20 84 84 S 8 13 29.94 1014 10 16 0.00 0.00
12:25 pm 12:25 Cloudy with Nearby Thunderstorms 72 22.2 69 20.6 91 91 S 6 9 29.93 1014 2 3 0.00 0.00
12:37 pm 12:37 Cloudy with Nearby Thunderstorms 71 21.7 69 20.6 94 94 WNW 6 9 29.95 1014 1 2 0.00 0.00
12:41 pm 12:41 Cloudy with Nearby Thunderstorms 71 21.7 69 20.6 94 94 Calm 29.95 1014 1 1 0.00 0.00
12:47 pm 12:47 Cloudy with Nearby Thunderstorms 70 21 66 19 88 88 E 6 9 29.95 1014 1 2 0.00 0.00
12:53 pm 12:53 Cloudy with Thunderstorms 69 20.6 66 18.9 90 90 Calm 29.95 1014 3 5 0.00 0.00
1:06 pm 13:06 Cloudy with Thunderstorms 69 20.6 65 18.3 87 87 Calm 29.93 1014 4 6 0.00 0.00
1:22 pm 13:22 Cloudy with Nearby Thunderstorms 68 20 66 18.9 93 93 WSW 3 6 29.95 1014 4 6 0.00 0.00
1:29 pm 13:29 Cloudy with Thunderstorms 68 20 67 19.4 96 96 SW 5 7 29.95 1014 5 8 0.00 0.00
1:50 pm 13:50 Cloudy with Light Rain 68 20 66 19 94 94 SSW 9 15 29.94 1014 4 6 0.00 0.00
1:53 pm 13:53 Cloudy with Light Rain 68 20 67 19.4 96 96 SSW 7 11 29.93 1014 4 6 0.00 0.00
2:25 pm 14:25 Cloudy with Light Rain 69 20.6 67 19.4 93 93 SSE 6 9 29.91 1013 10 16 0.00 0.00
2:53 pm 14:53 Cloudy with Light Rain 68 20 67 19.4 96 96 SE 7 11 29.91 1013 10 16 0.01 0.25
3:09 pm 15:09 Cloudy 68 20 67 19.4 96 96 SSE 12 19 29.90 1013 10 16 0.00 0.00
3:39 pm 15:39 Mostly Cloudy 71 21.7 68 20 90 90 S 9 15 29.89 1012 10 16 0.00 0.00
3:53 pm 15:53 Mostly Cloudy 71 21.7 67 19.4 87 87 SSE 10 17 29.89 1012 10 16 0.00 0.00
4:05 pm 16:05 Mostly Cloudy 72 22.2 67 19.4 84 84 S 10 17 29.87 1012 10 16 0.00 0.00
4:19 pm 16:19 Mostly Cloudy 71 21.7 66 18.9 84 84 S 13 20 29.89 1012 10 16 0.00 0.00
4:45 pm 16:45 Cloudy 70 21.1 66 18.9 87 87 S 7 11 29.89 1012 10 16 0.00 0.00
4:53 pm 16:53 Cloudy 70 21.1 66 18.9 87 87 S 8 13 29.89 1012 10 16 0.00 0.00
5:25 pm 17:25 Mostly Cloudy 71 21.7 67 19.4 87 87 S 10 17 29.87 1011 10 16 0.00 0.00
5:53 pm 17:53 Mostly Cloudy 71 21.7 67 19.4 87 87 S 10 17 29.88 1012 10 16 0.00 0.00
6:33 pm 18:33 Mostly Cloudy 71 21.7 66 18.9 84 84 S 10 17 29.87 1011 10 16 0.00 0.00
8:30 pm 20:30 Cloudy with Light Rain 70 21 66 19 88 88 SSW 13 20 29.87 1011 10 16 0.00 0.00
8:35 pm 20:35 Cloudy with Light Rain 70 21 66 19 88 88 SSW 15 24 29.88 1012 10 16 0.00 0.00
8:55 pm 20:55 Cloudy with Rain 70 21 66 19 88 88 S 12 19 29.88 1012 3 5 0.00 0.00
9:53 pm 21:53 Clear 68 20 66 18.9 93 93 S 8 13 29.88 1012 10 16 0.01 0.25
10:53 pm 22:53 Mostly Clear 68 20 66 18.9 93 93 SW 7 11 29.89 1012 10 16 0.00 0.00
11:53 pm 23:53 Cloudy 68 20 67 19.4 96 96 SW 3 6 29.90 1013 10 16 0.00 0.00

Powered by AerisWeather